Location: Ammerl�gen
(47.2167°N, 9.6000°E)
Time: 03:42:12
(UTC+00:00)

USA 229 - Pass Details

Date: 21 April 2021
Orbit: 958 x 1254 km, 63.4° (Epoch: 23 April)

Event Time Altitude Azimuth Distance (km) Brightness Sun altitude
Rises 21:10:30 0° 319° (NW) 3,933 8.1 -23.9°
Reaches altitude 10° 21:13:09 10° 323° (NW) 3,015 7.1 -24.2°
Maximum altitude 21:20:22 65° 45° (NE) 1,295 4.1 -24.9°
Enters shadow 21:23:08 41° 110° (ESE) 1,683 4.3 -25.1°
